TimeCDT,TemperatureF,Dew PointF,Humidity,Sea Level PressureIn,VisibilityMPH,Wind Direction,Wind SpeedMPH,Gust SpeedMPH,PrecipitationIn,Events,Conditions,WindDirDegrees,DateUTC
12:53 AM,62.1,59.0,90,30.16,10.0,Calm,Calm,-,N/A,,Clear,0,2013-09-06 05:53:00
1:53 AM,63.0,61.0,93,30.16,9.0,Calm,Calm,-,N/A,,Clear,0,2013-09-06 06:53:00
2:53 AM,63.0,61.0,93,30.15,9.0,Calm,Calm,-,N/A,,Clear,0,2013-09-06 07:53:00
3:53 AM,63.0,61.0,93,30.14,9.0,Calm,Calm,-,0.01,,Clear,0,2013-09-06 08:53:00
4:53 AM,61.0,60.1,97,30.13,8.0,Calm,Calm,-,N/A,,Clear,0,2013-09-06 09:53:00
5:53 AM,60.1,59.0,96,30.14,6.0,Calm,Calm,-,N/A,,Clear,0,2013-09-06 10:53:00
6:53 AM,61.0,60.1,97,30.15,4.0,Calm,Calm,-,N/A,,Clear,0,2013-09-06 11:53:00
7:53 AM,64.0,61.0,90,30.17,6.0,Calm,Calm,-,N/A,,Clear,0,2013-09-06 12:53:00
8:53 AM,68.0,63.0,84,30.18,8.0,Calm,Calm,-,N/A,,Clear,0,2013-09-06 13:53:00
9:53 AM,70.0,64.0,81,30.19,10.0,Calm,Calm,-,N/A,,Clear,0,2013-09-06 14:53:00
10:53 AM,75.0,64.0,69,30.18,10.0,South,4.6,-,N/A,,Clear,180,2013-09-06 15:53:00
11:53 AM,78.1,63.0,60,30.17,10.0,SE,4.6,-,N/A,,Clear,140,2013-09-06 16:53:00
12:53 PM,80.1,63.0,56,30.15,10.0,South,6.9,-,N/A,,Clear,180,2013-09-06 17:53:00
1:53 PM,82.0,61.0,49,30.13,10.0,ESE,5.8,-,N/A,,Clear,110,2013-09-06 18:53:00
2:53 PM,82.0,59.0,45,30.11,10.0,Calm,Calm,-,N/A,,Clear,0,2013-09-06 19:53:00
3:53 PM,82.0,59.0,45,30.09,10.0,ESE,4.6,-,N/A,,Clear,120,2013-09-06 20:53:00
4:53 PM,82.0,57.9,44,30.08,10.0,ESE,4.6,-,N/A,,Clear,110,2013-09-06 21:53:00
5:53 PM,82.0,57.9,44,30.07,10.0,Calm,Calm,-,N/A,,Clear,0,2013-09-06 22:53:00
6:53 PM,79.0,64.0,60,30.06,10.0,Calm,Calm,-,N/A,,Clear,0,2013-09-06 23:53:00
7:53 PM,72.0,64.9,78,30.06,10.0,Calm,Calm,-,N/A,,Clear,0,2013-09-07 00:53:00
8:53 PM,70.0,64.9,84,30.07,10.0,Calm,Calm,-,N/A,,Clear,0,2013-09-07 01:53:00
9:53 PM,68.0,64.0,87,30.07,10.0,Calm,Calm,-,N/A,,Clear,0,2013-09-07 02:53:00
10:53 PM,66.9,64.0,90,30.06,10.0,Calm,Calm,-,N/A,,Clear,0,2013-09-07 03:53:00
11:53 PM,63.0,62.1,97,30.06,7.0,Calm,Calm,-,N/A,,Clear,0,2013-09-07 04:53:00